TimeCST,TemperatureF,Dew PointF,Humidity,Sea Level PressureIn,VisibilityMPH,Wind Direction,Wind SpeedMPH,Gust SpeedMPH,PrecipitationIn,Events,Conditions,WindDirDegrees,DateUTC
12:06 AM,69.8,68.0,94,29.89,3.0,SSW,6.9,-,N/A,,Overcast,200,2013-02-23 06:06:00
12:56 AM,70.0,68.0,93,29.85,8.0,SSW,5.8,-,N/A,,Overcast,210,2013-02-23 06:56:00
1:56 AM,71.1,69.1,93,29.82,10.0,SSW,3.5,-,N/A,,Overcast,210,2013-02-23 07:56:00
2:19 AM,69.8,68.0,94,29.86,10.0,SW,4.6,-,N/A,,Overcast,220,2013-02-23 08:19:00
2:49 AM,69.8,68.0,94,29.85,10.0,Variable,3.5,-,N/A,,Mostly Cloudy,0,2013-02-23 08:49:00
2:56 AM,70.0,68.0,93,29.81,10.0,WSW,3.5,-,N/A,,Overcast,240,2013-02-23 08:56:00
3:47 AM,69.8,68.0,94,29.85,10.0,SW,3.5,-,0.00,,Overcast,230,2013-02-23 09:47:00
3:56 AM,70.0,68.0,93,29.81,10.0,SW,3.5,-,0.00,,Overcast,220,2013-02-23 09:56:00
4:07 AM,69.8,68.0,94,29.85,10.0,SW,3.5,-,0.00,Rain,Light Rain,230,2013-02-23 10:07:00
4:49 AM,62.6,60.8,94,29.87,10.0,NW,15.0,21.9,0.00,,Overcast,320,2013-02-23 10:49:00
4:56 AM,62.1,59.0,90,29.84,7.0,NNW,15.0,-,0.00,,Overcast,330,2013-02-23 10:56:00
5:28 AM,59.0,57.2,94,29.88,10.0,North,6.9,-,0.00,Rain,Light Rain,350,2013-02-23 11:28:00
5:45 AM,60.8,57.2,88,29.88,10.0,NE,3.5,-,0.00,,Overcast,50,2013-02-23 11:45:00
5:56 AM,60.1,57.0,90,29.84,10.0,Calm,Calm,-,0.00,,Overcast,0,2013-02-23 11:56:00
6:33 AM,60.8,57.2,88,29.88,5.0,North,5.8,-,0.12,Rain,Light Rain,360,2013-02-23 12:33:00
6:49 AM,60.8,57.2,88,29.89,10.0,NNW,8.1,-,0.14,Rain,Rain,340,2013-02-23 12:49:00
6:56 AM,60.1,57.0,90,29.87,6.0,NNW,9.2,-,0.19,Rain,Rain,340,2013-02-23 12:56:00
7:08 AM,59.0,57.2,94,29.90,2.0,NNW,6.9,-,0.12,Rain,Heavy Rain,330,2013-02-23 13:08:00
7:11 AM,59.0,57.2,94,29.90,3.0,NNW,4.6,-,0.12,Rain,Light Rain,330,2013-02-23 13:11:00
7:24 AM,59.0,57.2,94,29.92,1.8,Calm,Calm,-,0.24,Rain,Heavy Rain,0,2013-02-23 13:24:00
7:28 AM,59.0,57.2,94,29.91,2.0,Calm,Calm,-,0.25,Rain,Heavy Rain,0,2013-02-23 13:28:00
7:38 AM,59.0,57.2,94,29.90,10.0,North,8.1,-,0.26,Rain-Thunderstorm,Light Rain,10,2013-02-23 13:38:00
7:46 AM,59.0,55.4,88,29.92,5.0,NNW,3.5,-,0.29,Rain-Thunderstorm,Rain,330,2013-02-23 13:46:00
7:54 AM,57.2,55.4,94,29.91,3.0,North,6.9,-,0.35,Rain,Heavy Rain,350,2013-02-23 13:54:00
7:56 AM,57.9,55.9,93,29.87,4.0,North,6.9,-,0.35,Rain,Heavy Rain,350,2013-02-23 13:56:00
8:56 AM,57.0,55.0,93,29.86,10.0,NNE,4.6,-,0.14,Rain,Light Rain,20,2013-02-23 14:56:00
9:19 AM,57.2,55.4,94,29.91,10.0,NNW,11.5,-,0.01,Rain,Light Rain,340,2013-02-23 15:19:00
9:29 AM,57.2,55.4,94,29.90,10.0,NNW,9.2,-,0.01,,Overcast,330,2013-02-23 15:29:00
9:56 AM,57.9,55.0,90,29.86,10.0,North,8.1,-,0.01,,Mostly Cloudy,360,2013-02-23 15:56:00
10:56 AM,59.0,55.9,90,29.87,10.0,ENE,4.6,-,0.00,Rain,Light Rain,70,2013-02-23 16:56:00
11:56 AM,59.0,55.9,90,29.86,10.0,NNE,5.8,-,0.00,,Overcast,20,2013-02-23 17:56:00
12:56 PM,59.0,55.9,90,29.84,10.0,North,8.1,-,N/A,,Overcast,360,2013-02-23 18:56:00
1:04 PM,59.0,55.4,88,29.88,10.0,North,6.9,-,N/A,,Overcast,10,2013-02-23 19:04:00
1:56 PM,60.1,55.9,86,29.84,10.0,North,6.9,-,N/A,,Overcast,360,2013-02-23 19:56:00
2:56 PM,59.0,55.0,87,29.84,10.0,NNW,8.1,-,N/A,,Overcast,330,2013-02-23 20:56:00
3:17 PM,59.0,55.4,88,29.88,10.0,NNW,9.2,-,0.00,,Mostly Cloudy,340,2013-02-23 21:17:00
3:56 PM,59.0,55.0,87,29.85,10.0,East,4.6,-,0.00,,Overcast,90,2013-02-23 21:56:00
4:52 PM,57.2,55.4,94,29.80,10.0,East,8.1,-,0.00,,Mostly Cloudy,80,2013-02-23 22:52:00
4:56 PM,57.9,55.9,93,29.76,10.0,East,9.2,-,0.00,,Overcast,80,2013-02-23 22:56:00
5:38 PM,57.2,55.4,94,29.80,10.0,SE,9.2,-,N/A,,Scattered Clouds,140,2013-02-23 23:38:00
5:56 PM,57.9,55.0,90,29.81,10.0,NW,6.9,-,N/A,,Mostly Cloudy,320,2013-02-23 23:56:00
6:56 PM,57.9,55.0,90,29.85,10.0,NNW,6.9,-,N/A,,Overcast,330,2013-02-24 00:56:00
7:56 PM,57.9,55.0,90,29.87,10.0,North,8.1,-,N/A,,Overcast,350,2013-02-24 01:56:00
8:56 PM,57.9,54.0,87,29.89,10.0,North,3.5,-,N/A,,Overcast,350,2013-02-24 02:56:00
9:56 PM,57.0,55.0,93,29.91,10.0,Calm,Calm,-,N/A,,Overcast,0,2013-02-24 03:56:00
10:13 PM,57.2,55.4,94,29.94,10.0,NNE,3.5,-,N/A,,Overcast,30,2013-02-24 04:13:00
10:28 PM,57.2,53.6,88,29.95,10.0,North,3.5,-,N/A,,Overcast,10,2013-02-24 04:28:00
10:56 PM,57.9,54.0,87,29.91,10.0,North,6.9,-,N/A,,Overcast,360,2013-02-24 04:56:00
11:48 PM,57.2,53.6,88,29.95,10.0,North,8.1,-,N/A,,Overcast,350,2013-02-24 05:48:00
11:56 PM,57.0,53.1,87,29.92,10.0,North,8.1,-,N/A,,Overcast,360,2013-02-24 05:56:00